This is the latest recevied weather packets stored in our database for station/object KE4LOJ. If no packets are shown the sender has not sent any weather packets the latest 10 day(s).
| Time | Temp. | Humidity | Pressure | Rain* | Wind** | Luminosity | Snow |
|---|---|---|---|---|---|---|---|
| 1778001234 | 27.78° C | 49% | 1017.2 hPa | 0 mm | - | 964 W/m² | - |
| 1778000930 | 26.67° C | 53% | 1017.1 hPa | 0 mm | - | 987 W/m² | - |
| 1778000628 | 26.67° C | 53% | 1017.4 hPa | 0 mm | - | 235 W/m² | - |
| 1778000322 | 26.67° C | 53% | 1017.3 hPa | 0 mm | - | 224 W/m² | - |
| 1778000018 | 26.67° C | 53% | 1017.2 hPa | 0 mm | - | 214 W/m² | - |
| 1777999714 | 26.67° C | 52% | 1017.2 hPa | 0 mm | - | 242 W/m² | - |
| 1777999411 | 27.22° C | 52% | 1017.2 hPa | 0 mm | - | 248 W/m² | - |
| 1777999109 | 26.67° C | 53% | 1017.4 hPa | 0 mm | - | 285 W/m² | - |
| 1777998808 | 26.67° C | 53% | 1017.3 hPa | 0 mm | - | 692 W/m² | - |
| 1777998506 | 26.67° C | 55% | 1017.3 hPa | 0 mm | - | 228 W/m² | - |
| 1777998202 | 26.11° C | 55% | 1017.2 hPa | 0 mm | - | 226 W/m² | - |
| 1777997899 | 26.67° C | 55% | 1017.3 hPa | 0 mm | - | 272 W/m² | - |
| 1777997596 | 26.67° C | 56% | 1017.3 hPa | 0 mm | - | 256 W/m² | - |
| 1777997294 | 26.67° C | 56% | 1017.3 hPa | 0 mm | - | 186 W/m² | - |
| 1777996991 | 27.22° C | 54% | 1017.1 hPa | 0 mm | - | 245 W/m² | - |
| 1777996688 | 27.22° C | 53% | 1017.4 hPa | 0 mm | - | 329 W/m² | - |
| 1777996383 | 27.22° C | 54% | 1017.4 hPa | 0 mm | - | 487 W/m² | - |
| 1777996080 | 26.67° C | 54% | 1017.3 hPa | 0 mm | - | 275 W/m² | - |
| 1777995777 | 26.67° C | 55% | 1017.2 hPa | 0 mm | - | 826 W/m² | - |
| 1777995473 | 27.22° C | 54% | 1017.2 hPa | 0 mm | - | 789 W/m² | - |
| 1777995170 | 26.11° C | 56% | 1017.3 hPa | 0 mm | - | 663 W/m² | - |
| 1777994867 | 27.22° C | 54% | 1017.4 hPa | 0 mm | - | 180 W/m² | - |
| 1777994563 | 27.22° C | 53% | 1017.2 hPa | 0 mm | - | 736 W/m² | - |
| 1777994257 | 27.22° C | 55% | 1017.3 hPa | 0 mm | - | 774 W/m² | - |
| 1777993956 | 26.67° C | 56% | 1017.3 hPa | 0 mm | - | 570 W/m² | - |
* Rain latest hour (hover to see other rain measurements)
** Current wind speed in m/s (hover to see current wind gust speed)